Date String (YYYY-MM-DD hh:mm:ss) UTC,Instrument flags,Ambient pressure (hPa),Sample flow (lpm),Bypass flow (lpm),Sample temperature (°C),Ambient temperature (°C),ASC tube jacket temperature (°C),LED temperature (°C),Box temperature (°C),Sample RH (%),Span deviation,Mass concentration (μg/m³),Mass concentration (μg/m³),Mass concentration (μg/m³)
DateTimeUTC,F1_M11,P_M11,Q1_M11,Q2_M11,T1_M11,T2_M11,T3_M11,T4_M11,T5_M11,U1_M11,ZSPAN_M11,X0_M11,X2_M11,X1_M11
2022-10-05 22:00:00,,0832.9,5.00,0.00,30.0,27.8,00.0,38.6,31.9,17.3,0000.0,0008.11,0004.89,0004.56
2022-10-05 22:01:00,,0832.8,4.99,0.00,30.0,26.9,00.0,38.6,31.7,17.6,0000.0,0008.26,0004.92,0004.55
2022-10-05 22:02:00,,0832.9,4.99,0.00,29.9,27.0,00.0,38.5,31.6,17.6,0000.0,0008.35,0004.91,0004.53
2022-10-05 22:03:00,,0832.8,4.99,0.00,29.8,27.2,00.0,38.5,31.5,17.2,0000.0,0008.35,0004.89,0004.53
2022-10-05 22:04:00,,0832.8,5.01,0.00,29.8,27.5,00.0,38.5,31.5,17.1,0000.0,0008.34,0004.91,0004.55
2022-10-05 22:05:00,,0832.8,4.99,0.00,29.8,27.8,00.0,38.5,31.6,17.4,0000.0,0008.36,0004.88,0004.53
2022-10-05 22:06:00,,0832.8,4.99,0.00,29.8,28.0,00.0,38.5,31.6,17.3,0000.0,0008.70,0004.88,0004.51
2022-10-05 22:07:00,,0832.8,5.01,0.00,29.8,28.3,00.0,38.5,31.7,17.1,0000.0,0008.39,0004.89,0004.52
2022-10-05 22:08:00,,0832.9,4.99,0.00,29.8,28.4,00.0,38.5,31.7,17.1,0000.0,0008.54,0004.86,0004.51
2022-10-05 22:09:00,,0832.8,5.01,0.00,29.8,28.6,00.0,38.5,31.7,17.3,0000.0,0008.52,0004.86,0004.50
2022-10-05 22:10:00,,0832.8,4.99,0.00,29.9,28.7,00.0,38.5,31.8,17.2,0000.0,0008.58,0004.87,0004.48
2022-10-05 22:11:00,,0832.8,5.01,0.00,29.9,28.8,00.0,38.5,31.8,17.2,0000.0,0008.52,0004.85,0004.47
2022-10-05 22:12:00,,0832.8,4.99,0.00,29.9,28.9,00.0,38.5,31.8,17.3,0000.0,0008.49,0004.83,0004.46
2022-10-05 22:13:00,,0832.8,5.01,0.00,29.9,29.0,00.0,38.6,31.9,17.2,0000.0,0008.72,0004.81,0004.46
2022-10-05 22:14:00,,0832.8,4.99,0.00,30.0,29.0,00.0,38.6,31.9,17.1,0000.0,0008.87,0004.80,0004.44
2022-10-05 22:15:00,,0832.8,4.99,0.00,30.0,29.0,00.0,38.6,32.0,17.1,0000.0,0009.32,0004.81,0004.40
2022-10-05 22:16:00,,0832.8,5.01,0.00,30.0,27.8,00.0,38.6,31.8,17.1,0000.0,0009.94,0004.82,0004.38
2022-10-05 22:17:00,,0832.9,5.00,0.00,29.9,26.9,00.0,38.6,31.6,17.3,0000.0,0009.54,0004.79,0004.35
2022-10-05 22:18:00,,0832.9,5.00,0.00,29.9,26.9,00.0,38.6,31.5,17.4,0000.0,0009.43,0004.74,0004.28
2022-10-05 22:19:00,,0832.9,4.98,0.00,29.8,27.2,00.0,38.5,31.5,17.9,0000.0,0009.55,0004.72,0004.27
2022-10-05 22:20:00,,0832.8,5.00,0.00,29.8,27.5,00.0,38.5,31.5,17.9,0000.0,0010.54,0004.72,0004.26
2022-10-05 22:21:00,,0832.8,5.01,0.00,29.8,27.8,00.0,38.5,31.5,17.6,0000.0,0011.62,0004.73,0004.26
2022-10-05 22:22:00,,0832.9,4.99,0.00,29.8,28.0,00.0,38.5,31.6,17.7,0000.0,0011.82,0004.75,0004.26
2022-10-05 22:23:00,,0832.8,5.00,0.00,29.8,28.2,00.0,38.5,31.6,17.4,0000.0,0011.76,0004.74,0004.26
2022-10-05 22:24:00,,0832.9,5.01,0.00,29.8,28.4,00.0,38.5,31.7,17.6,0000.0,0011.42,0004.72,0004.24
2022-10-05 22:25:00,,0832.9,4.99,0.00,29.8,28.6,00.0,38.5,31.7,17.6,0000.0,0011.74,0004.68,0004.20
2022-10-05 22:26:00,,0833.0,5.01,0.00,29.8,28.7,00.0,38.5,31.7,17.1,0000.0,0011.37,0004.62,0004.18
2022-10-05 22:27:00,,0833.0,4.99,0.00,29.9,28.8,00.0,38.5,31.7,17.3,0000.0,0010.61,0004.56,0004.16
2022-10-05 22:28:00,,0833.0,5.01,0.00,29.9,28.9,00.0,38.5,31.8,17.2,0000.0,0010.61,0004.55,0004.17
2022-10-05 22:29:00,,0833.0,4.99,0.00,29.9,29.0,00.0,38.5,31.9,17.1,0000.0,0011.06,0004.55,0004.18
2022-10-05 22:30:00,,0833.0,5.00,0.00,30.0,29.0,00.0,38.5,31.9,17.1,0000.0,0011.21,0004.54,0004.18
2022-10-05 22:31:00,,0833.0,5.01,0.00,30.0,29.1,00.0,38.6,31.9,17.0,0000.0,0010.07,0004.50,0004.16
2022-10-05 22:32:00,,0833.0,5.00,0.00,30.0,29.1,00.0,38.6,32.0,16.7,0000.0,0008.91,0004.45,0004.13
2022-10-05 22:33:00,,0833.0,5.00,0.00,30.0,28.8,00.0,38.6,32.0,16.8,0000.0,0008.60,0004.39,0004.09
2022-10-05 22:34:00,,0832.9,4.99,0.00,30.0,27.5,00.0,38.6,31.8,16.8,0000.0,0008.63,0004.38,0004.06
2022-10-05 22:35:00,,0832.9,5.00,0.00,30.0,27.1,00.0,38.6,31.7,17.0,0000.0,0008.82,0004.37,0004.04
2022-10-05 22:36:00,,0832.8,5.00,0.00,29.9,27.2,00.0,38.6,31.6,17.1,0000.0,0009.03,0004.35,0004.02
2022-10-05 22:37:00,,0832.8,5.01,0.00,29.9,27.4,00.0,38.5,31.6,17.2,0000.0,0009.34,0004.33,0004.00
2022-10-05 22:38:00,,0832.8,4.99,0.00,29.8,27.7,00.0,38.5,31.6,17.1,0000.0,0009.59,0004.29,0003.96
2022-10-05 22:39:00,,0832.9,5.00,0.00,29.8,28.0,00.0,38.5,31.6,17.3,0000.0,0009.52,0004.24,0003.92
2022-10-05 22:40:00,,0832.9,5.00,0.00,29.8,28.2,00.0,38.5,31.7,17.6,0000.0,0009.17,0004.20,0003.88
2022-10-05 22:41:00,,0833.0,4.99,0.00,29.8,28.4,00.0,38.5,31.7,16.9,0000.0,0008.75,0004.18,0003.86
2022-10-05 22:42:00,,0833.1,5.00,0.00,29.9,28.6,00.0,38.5,31.7,16.6,0000.0,0008.70,0004.17,0003.87
2022-10-05 22:43:00,,0833.0,4.99,0.00,29.9,28.7,00.0,38.5,31.8,16.6,0000.0,0009.18,0004.18,0003.87
2022-10-05 22:44:00,,0833.0,5.01,0.00,29.9,28.8,00.0,38.5,31.8,16.7,0000.0,0009.40,0004.17,0003.86
2022-10-05 22:45:00,,0833.1,4.99,0.00,29.9,28.9,00.0,38.6,31.9,17.1,0000.0,0009.46,0004.14,0003.86
2022-10-05 22:46:00,,0833.0,5.01,0.00,30.0,29.0,00.0,38.6,31.9,16.8,0000.0,0009.37,0004.13,0003.85
2022-10-05 22:47:00,,0833.0,4.99,0.00,30.0,29.1,00.0,38.6,31.9,16.4,0000.0,0008.63,0004.13,0003.85
2022-10-05 22:48:00,,0833.1,5.01,0.00,30.0,29.1,00.0,38.6,32.0,16.4,0000.0,0008.46,0004.11,0003.85
2022-10-05 22:49:00,,0833.0,4.99,0.00,30.1,29.1,00.0,38.6,32.0,16.5,0000.0,0008.46,0004.11,0003.85
2022-10-05 22:50:00,,0833.0,5.01,0.00,30.1,28.1,00.0,38.6,31.9,16.4,0000.0,0009.34,0004.11,0003.85
2022-10-05 22:51:00,,0833.1,5.00,0.00,30.0,27.0,00.0,38.6,31.7,16.8,0000.0,0009.39,0004.10,0003.85
2022-10-05 22:52:00,,0833.1,5.00,0.00,29.9,26.9,00.0,38.6,31.6,16.8,0000.0,0009.41,0004.09,0003.84
2022-10-05 22:53:00,,0833.0,5.00,0.00,29.9,27.1,00.0,38.6,31.5,16.9,0000.0,0009.45,0004.08,0003.80
2022-10-05 22:54:00,,0833.1,5.00,0.00,29.8,27.5,00.0,38.5,31.6,16.3,0000.0,0009.05,0004.03,0003.76
2022-10-05 22:55:00,,0833.1,5.01,0.00,29.8,27.8,00.0,38.5,31.6,16.2,0000.0,0008.75,0004.00,0003.73
2022-10-05 22:56:00,,0833.0,4.99,0.00,29.8,28.1,00.0,38.5,31.6,16.3,0000.0,0008.54,0003.99,0003.71
2022-10-05 22:57:00,,0833.1,5.01,0.00,29.8,28.3,00.0,38.5,31.7,16.4,0000.0,0008.48,0003.98,0003.68
2022-10-05 22:58:00,,0833.0,5.00,0.00,29.8,28.5,00.0,38.5,31.7,16.4,0000.0,0008.42,0003.96,0003.65
2022-10-05 22:59:00,,0833.0,5.00,0.00,29.9,28.6,00.0,38.5,31.8,16.4,0000.0,0008.70,0003.95,0003.62
